HAZ6296 WARR-RCTP

Flight info

Callsign HAZ6296
Flight time N/A
Altitude 35000
Route RAMPY W31 BDM DCT ELANG M522 VJN M646 MIKEL/N0482F370 M646 MIA/N0478F380 M646 SANRO/N0479F370 M646 POTIB Q14 TNN TNN1A
Aircraft A339/H-SADE1E2E3GHIJ3J5M1P2RWXY/LB2D1

Departure

Time 2026-05-01 08:55
Airport Juanda International Airport (WARR)

Arrival

Time N/A
Airport Taiwan Taoyuan International Airport (RCTP)
Time Latitude Longitude Altitude Speed Heading
2026-05-01 08:24 -7.38213 112.77593 22 ft 0 kts 189°
2026-05-01 08:39 -7.38212 112.77593 22 ft 0 kts 189°
2026-05-01 08:40 -7.38191 112.77602 22 ft 2 kts 226°
2026-05-01 08:40 -7.38182 112.77614 22 ft 2 kts 246°
2026-05-01 08:40 -7.38177 112.77628 22 ft 2 kts 266°
2026-05-01 08:41 -7.38178 112.77642 22 ft 1 kts 281°
2026-05-01 08:41 -7.38178 112.77644 22 ft 0 kts 281°
2026-05-01 08:44 -7.38174 112.77624 22 ft 5 kts 281°
2026-05-01 08:44 -7.38156 112.77595 21 ft 5 kts 341°
2026-05-01 08:44 -7.38103 112.77592 20 ft 9 kts 360°
2026-05-01 08:44 -7.38033 112.77601 19 ft 8 kts
2026-05-01 08:45 -7.37998 112.77569 19 ft 8 kts 290°
2026-05-01 08:45 -7.37985 112.77505 20 ft 10 kts 279°
2026-05-01 08:45 -7.37973 112.77427 20 ft 12 kts 279°
2026-05-01 08:45 -7.37952 112.77356 20 ft 9 kts 304°
2026-05-01 08:46 -7.37944 112.77324 20 ft 2 kts 239°
2026-05-01 08:46 -7.37961 112.77330 20 ft 4 kts 123°
2026-05-01 08:46 -7.37976 112.77374 20 ft 7 kts 107°
2026-05-01 08:46 -7.37982 112.77434 20 ft 9 kts 92°
2026-05-01 08:47 -7.37988 112.77510 19 ft 12 kts 96°
2026-05-01 08:47 -7.38001 112.77602 19 ft 14 kts 98°
2026-05-01 08:47 -7.38018 112.77705 20 ft 15 kts 99°
2026-05-01 08:47 -7.38036 112.77818 20 ft 16 kts 99°
2026-05-01 08:48 -7.38056 112.77935 21 ft 17 kts 100°
2026-05-01 08:48 -7.38076 112.78059 20 ft 18 kts 99°
2026-05-01 08:48 -7.38097 112.78192 20 ft 19 kts 100°
2026-05-01 08:48 -7.38120 112.78331 20 ft 20 kts 99°
2026-05-01 08:49 -7.38142 112.78471 20 ft 21 kts 99°
2026-05-01 08:49 -7.38167 112.78619 20 ft 21 kts 99°
2026-05-01 08:49 -7.38193 112.78767 19 ft 22 kts 99°
2026-05-01 08:49 -7.38218 112.78924 18 ft 22 kts 99°
2026-05-01 08:50 -7.38241 112.79079 18 ft 22 kts 98°
2026-05-01 08:50 -7.38267 112.79237 18 ft 22 kts 99°
2026-05-01 08:50 -7.38295 112.79394 18 ft 23 kts 101°
2026-05-01 08:50 -7.38320 112.79554 19 ft 22 kts 98°
2026-05-01 08:51 -7.38345 112.79709 20 ft 22 kts 99°
2026-05-01 08:51 -7.38370 112.79861 21 ft 22 kts 99°
2026-05-01 08:51 -7.38391 112.79982 21 ft 11 kts 100°
2026-05-01 08:51 -7.38382 112.80039 21 ft 7 kts 40°
2026-05-01 08:52 -7.38326 112.80051 21 ft 6 kts 354°
2026-05-01 08:52 -7.38320 112.80050 21 ft 0 kts 352°
2026-05-01 08:53 -7.38315 112.80049 21 ft 2 kts 352°
2026-05-01 08:53 -7.38292 112.80044 22 ft 4 kts 341°
2026-05-01 08:53 -7.38253 112.80029 22 ft 7 kts 339°
2026-05-01 08:53 -7.38209 112.80002 22 ft 7 kts 306°
2026-05-01 08:54 -7.38190 112.79950 22 ft 7 kts 281°
2026-05-01 08:54 -7.38188 112.79942 22 ft 0 kts 280°
2026-05-01 08:54 -7.38178 112.79886 22 ft 28 kts 279°
2026-05-01 08:54 -7.38110 112.79461 19 ft 93 kts 279°
2026-05-01 08:55 -7.37974 112.78624 21 ft 147 kts 278°
2026-05-01 08:55 -7.37797 112.77490 231 ft 173 kts 278°
2026-05-01 08:55 -7.37590 112.76289 688 ft 179 kts 279°
2026-05-01 08:55 -7.37371 112.75062 1201 ft 178 kts 279°
2026-05-01 08:56 -7.37157 112.73828 1579 ft 178 kts 279°
2026-05-01 08:56 -7.36952 112.72595 1934 ft 180 kts 279°
2026-05-01 08:56 -7.36743 112.71354 2293 ft 181 kts 279°
2026-05-01 08:56 -7.36525 112.70091 2800 ft 184 kts 279°
2026-05-01 08:57 -7.36298 112.68810 3351 ft 187 kts 279°
2026-05-01 08:57 -7.36023 112.67505 3762 ft 199 kts 292°
2026-05-01 08:57 -7.35078 112.66454 4078 ft 214 kts 339°
2026-05-01 08:57 -7.33585 112.66336 4385 ft 225 kts 22°
2026-05-01 08:58 -7.32304 112.67262 4712 ft 237 kts 56°
2026-05-01 08:58 -7.31388 112.68697 5105 ft 254 kts 59°
2026-05-01 08:58 -7.30412 112.70273 5364 ft 271 kts 59°
2026-05-01 08:58 -7.29401 112.71870 5834 ft 276 kts 59°
2026-05-01 08:59 -7.28350 112.73492 6431 ft 277 kts 58°
2026-05-01 08:59 -7.27579 112.74670 6832 ft 278 kts 58°
2026-05-01 08:59 -7.27572 112.74680 6836 ft 278 kts 58°
2026-05-01 08:59 -7.26487 112.76327 7374 ft 281 kts 58°
2026-05-01 09:00 -7.25413 112.77953 7878 ft 283 kts 58°
2026-05-01 09:00 -7.24312 112.79617 8398 ft 286 kts 58°
2026-05-01 09:00 -7.23202 112.81292 8902 ft 289 kts 58°
2026-05-01 09:00 -7.22073 112.82996 9395 ft 292 kts 58°
2026-05-01 09:01 -7.20931 112.84680 9885 ft 294 kts 52°
2026-05-01 09:01 -7.19489 112.86138 10344 ft 299 kts 39°
2026-05-01 09:01 -7.17676 112.87273 10577 ft 313 kts 29°
2026-05-01 09:01 -7.15697 112.88283 10813 ft 326 kts 27°
2026-05-01 09:02 -7.13616 112.89321 11036 ft 338 kts 28°
2026-05-01 09:02 -7.11443 112.90411 11261 ft 351 kts 28°
2026-05-01 09:02 -7.09230 112.91527 11461 ft 363 kts 28°
2026-05-01 09:02 -7.06923 112.92696 11673 ft 376 kts 28°
2026-05-01 09:03 -7.04572 112.93893 11964 ft 385 kts 28°
2026-05-01 09:03 -7.02156 112.95123 12431 ft 389 kts 28°
2026-05-01 09:03 -6.99724 112.96363 12960 ft 390 kts 28°
2026-05-01 09:03 -6.97301 112.97598 13458 ft 393 kts 28°
2026-05-01 09:04 -6.94853 112.98845 13944 ft 395 kts 28°
2026-05-01 09:04 -6.92390 113.00102 14409 ft 397 kts 28°
2026-05-01 09:04 -6.89919 113.01363 14867 ft 400 kts 28°
2026-05-01 09:04 -6.87408 113.02645 15316 ft 403 kts 28°
2026-05-01 09:05 -6.84914 113.03917 15751 ft 405 kts 28°
2026-05-01 09:05 -6.82388 113.05205 16185 ft 408 kts 28°
2026-05-01 09:05 -6.79846 113.06501 16611 ft 410 kts 28°
2026-05-01 09:05 -6.77273 113.07815 17040 ft 412 kts 28°
2026-05-01 09:06 -6.74706 113.09129 17466 ft 414 kts 28°
2026-05-01 09:06 -6.72154 113.10438 17872 ft 417 kts 28°
2026-05-01 09:06 -6.69541 113.11779 18276 ft 419 kts 28°
2026-05-01 09:06 -6.66918 113.13125 18666 ft 422 kts 28°
2026-05-01 09:07 -6.64288 113.14474 19063 ft 424 kts 28°
2026-05-01 09:07 -6.61663 113.15820 19444 ft 426 kts 28°
2026-05-01 09:07 -6.59004 113.17184 19811 ft 429 kts 28°
2026-05-01 09:07 -6.56353 113.18542 20182 ft 431 kts 27°
2026-05-01 09:08 -6.53673 113.19916 20557 ft 432 kts 27°
2026-05-01 09:08 -6.50994 113.21289 20926 ft 434 kts 28°
2026-05-01 09:08 -6.48257 113.22691 21290 ft 435 kts 27°
2026-05-01 09:08 -6.45564 113.24072 21614 ft 437 kts 28°
2026-05-01 09:09 -6.42855 113.25461 21921 ft 439 kts 28°
2026-05-01 09:09 -6.40102 113.26872 22237 ft 441 kts 28°
2026-05-01 09:09 -6.37371 113.28272 22557 ft 443 kts 28°
2026-05-01 09:09 -6.34606 113.29691 22843 ft 446 kts 28°
2026-05-01 09:10 -6.31825 113.31117 23107 ft 448 kts 28°
2026-05-01 09:10 -6.29047 113.32540 23392 ft 451 kts 28°
2026-05-01 09:10 -6.26227 113.33985 23675 ft 453 kts 28°
2026-05-01 09:10 -6.23421 113.35403 23947 ft 455 kts 27°
2026-05-01 09:11 -6.20569 113.36799 24231 ft 457 kts 27°
2026-05-01 09:11 -6.17683 113.38198 24517 ft 459 kts 27°
2026-05-01 09:11 -6.14788 113.39602 24797 ft 461 kts 27°
2026-05-01 09:11 -6.11884 113.41013 25072 ft 462 kts 27°
2026-05-01 09:12 -6.08979 113.42429 25315 ft 465 kts 27°
2026-05-01 09:12 -6.06080 113.43842 25552 ft 467 kts 27°
2026-05-01 09:12 -6.03122 113.45286 25794 ft 469 kts 27°
2026-05-01 09:12 -6.00186 113.46718 26037 ft 471 kts 27°
2026-05-01 09:13 -5.97243 113.48154 26261 ft 473 kts 27°
2026-05-01 09:13 -5.94259 113.49611 26481 ft 475 kts 27°
2026-05-01 09:13 -5.91272 113.51068 26700 ft 477 kts 27°
2026-05-01 09:13 -5.88239 113.52548 26923 ft 479 kts 27°
2026-05-01 09:14 -5.85242 113.54009 27156 ft 481 kts 27°
2026-05-01 09:14 -5.82239 113.55474 27458 ft 480 kts 27°
2026-05-01 09:14 -5.79241 113.56937 27812 ft 479 kts 27°
2026-05-01 09:14 -5.76213 113.58414 28142 ft 478 kts 27°
2026-05-01 09:15 -5.73224 113.59872 28440 ft 478 kts 27°
2026-05-01 09:15 -5.70228 113.61334 28745 ft 477 kts 27°
2026-05-01 09:15 -5.67239 113.62792 29059 ft 477 kts 27°
2026-05-01 09:15 -5.64271 113.64240 29387 ft 476 kts 27°
2026-05-01 09:16 -5.61289 113.65694 29708 ft 475 kts 27°
2026-05-01 09:16 -5.58314 113.67145 30045 ft 474 kts 27°
2026-05-01 09:16 -5.55341 113.68594 30360 ft 473 kts 26°
2026-05-01 09:17 -5.49450 113.71465 30983 ft 471 kts 26°
2026-05-01 09:17 -5.46500 113.72903 31299 ft 470 kts 26°
2026-05-01 09:17 -5.40625 113.75765 31906 ft 468 kts 26°
2026-05-01 09:18 -5.37667 113.77206 32208 ft 467 kts 26°
2026-05-01 09:18 -5.31865 113.80032 32902 ft 464 kts 26°
2026-05-01 09:19 -5.26039 113.82869 33501 ft 463 kts 26°
2026-05-01 09:19 -5.23153 113.84274 33724 ft 464 kts 26°
2026-05-01 09:19 -5.20227 113.85699 33964 ft 465 kts 26°
2026-05-01 09:20 -5.14362 113.88554 34424 ft 468 kts 26°
2026-05-01 09:20 -5.08511 113.91402 34830 ft 470 kts 26°
2026-05-01 09:21 -5.02616 113.94275 34836 ft 470 kts 26°
2026-05-01 09:21 -4.93758 113.98593 34839 ft 470 kts 26°
2026-05-01 09:22 -4.82125 114.04376 34840 ft 469 kts 26°
2026-05-01 09:23 -4.73352 114.08742 34851 ft 469 kts 26°
2026-05-01 09:24 -4.64555 114.13120 34851 ft 469 kts 26°
2026-05-01 09:25 -4.52896 114.18916 34851 ft 467 kts 26°
2026-05-01 09:26 -4.44108 114.23284 34856 ft 467 kts 26°
2026-05-01 09:26 -4.35379 114.27622 34857 ft 468 kts 26°
2026-05-01 09:27 -4.26599 114.31984 34854 ft 467 kts 26°
2026-05-01 09:28 -4.20797 114.34866 34848 ft 467 kts 26°
2026-05-01 09:28 -4.14932 114.37779 34845 ft 467 kts 26°
2026-05-01 09:29 -4.06213 114.42109 34843 ft 466 kts 26°
2026-05-01 09:30 -3.97486 114.46440 34837 ft 466 kts 26°
2026-05-01 09:30 -3.88767 114.50767 34836 ft 466 kts 26°
2026-05-01 09:31 -3.82948 114.53655 34838 ft 466 kts 27°
2026-05-01 09:32 -3.74220 114.57986 34840 ft 466 kts 27°
2026-05-01 09:32 -3.65477 114.62326 34843 ft 466 kts 27°
2026-05-01 09:33 -3.59766 114.65161 34844 ft 467 kts 27°
2026-05-01 09:34 -3.50967 114.69434 34842 ft 467 kts 24°
2026-05-01 09:34 -3.41687 114.72420 34842 ft 468 kts 13°
2026-05-01 09:35 -3.31928 114.73642 34845 ft 469 kts
2026-05-01 09:36 -3.25409 114.73910 34843 ft 470 kts
2026-05-01 09:36 -3.18824 114.74171 34843 ft 471 kts
2026-05-01 09:37 -3.12276 114.74434 34842 ft 471 kts
2026-05-01 09:37 -3.02544 114.74831 34840 ft 471 kts
2026-05-01 09:38 -2.92675 114.75235 34838 ft 472 kts
2026-05-01 09:39 -2.82792 114.75638 34833 ft 472 kts
2026-05-01 09:39 -2.76210 114.75909 34832 ft 471 kts
2026-05-01 09:40 -2.66361 114.76311 34832 ft 472 kts
2026-05-01 09:41 -2.59775 114.76580 34835 ft 473 kts
2026-05-01 09:41 -2.49884 114.76984 34833 ft 473 kts
2026-05-01 09:42 -2.43299 114.77254 34837 ft 473 kts
2026-05-01 09:43 -2.30104 114.77794 34836 ft 473 kts
2026-05-01 09:43 -2.23477 114.78066 34842 ft 474 kts
2026-05-01 09:44 -2.13573 114.78470 34845 ft 474 kts
2026-05-01 09:45 -2.06984 114.78739 34844 ft 474 kts
2026-05-01 09:45 -1.97036 114.79147 34842 ft 475 kts
2026-05-01 09:46 -1.90408 114.79419 34834 ft 475 kts
2026-05-01 09:46 -1.83803 114.79688 34827 ft 475 kts
2026-05-01 09:47 -1.77153 114.79959 34825 ft 475 kts
2026-05-01 09:47 -1.70556 114.80228 34828 ft 476 kts
2026-05-01 09:48 -1.63912 114.80501 34832 ft 476 kts
2026-05-01 09:48 -1.57280 114.80773 34834 ft 477 kts
2026-05-01 09:49 -1.50614 114.81046 34840 ft 478 kts
2026-05-01 09:49 -1.43951 114.81317 34842 ft 478 kts
2026-05-01 09:50 -1.37261 114.81591 34840 ft 477 kts
2026-05-01 09:50 -1.30604 114.81863 34839 ft 478 kts
2026-05-01 09:51 -1.23937 114.82135 34839 ft 478 kts
2026-05-01 09:51 -1.17302 114.82407 34841 ft 478 kts
2026-05-01 09:52 -1.10633 114.82680 34844 ft 479 kts
2026-05-01 09:52 -1.03947 114.82955 34847 ft 480 kts
2026-05-01 09:53 -0.97260 114.83230 34850 ft 479 kts
2026-05-01 09:53 -0.90590 114.83848 34850 ft 478 kts
2026-05-01 09:54 -0.84024 114.85027 34849 ft 478 kts 12°
2026-05-01 09:54 -0.77505 114.86272 34847 ft 477 kts 12°
2026-05-01 09:55 -0.70959 114.87521 34846 ft 477 kts 12°
2026-05-01 09:55 -0.64400 114.88769 34849 ft 477 kts 12°
2026-05-01 09:56 -0.57884 114.90007 34849 ft 478 kts 12°
2026-05-01 09:56 -0.51298 114.91258 34850 ft 478 kts 12°
2026-05-01 09:57 -0.44746 114.92502 34854 ft 478 kts 12°
2026-05-01 09:57 -0.38227 114.93739 34861 ft 478 kts 12°
2026-05-01 09:58 -0.31642 114.94990 34870 ft 477 kts 12°
2026-05-01 09:58 -0.25092 114.96236 34880 ft 478 kts 12°
2026-05-01 09:59 -0.18555 114.97478 34888 ft 478 kts 12°
2026-05-01 09:59 -0.12019 114.98716 34893 ft 478 kts 12°
2026-05-01 10:00 -0.05459 114.99957 34898 ft 478 kts 12°
2026-05-01 10:00 0.01114 115.01202 34905 ft 477 kts 12°
2026-05-01 10:01 0.07644 115.02441 34920 ft 477 kts 12°
2026-05-01 10:01 0.14201 115.03685 34934 ft 476 kts 12°
2026-05-01 10:02 0.20733 115.04925 34924 ft 476 kts 12°
2026-05-01 10:02 0.27251 115.06162 34920 ft 476 kts 12°
2026-05-01 10:03 0.33784 115.07402 34907 ft 476 kts 12°
2026-05-01 10:03 0.40267 115.08633 34892 ft 476 kts 12°
2026-05-01 10:04 0.46829 115.09879 34888 ft 476 kts 12°
2026-05-01 10:04 0.53341 115.11114 34883 ft 475 kts 12°
2026-05-01 10:05 0.59816 115.12343 34889 ft 475 kts 12°
2026-05-01 10:05 0.66331 115.13580 34900 ft 475 kts 12°
2026-05-01 10:06 0.72826 115.14813 34908 ft 474 kts 12°
2026-05-01 10:06 0.79343 115.16050 34910 ft 474 kts 12°
2026-05-01 10:07 0.85840 115.17283 34926 ft 474 kts 12°
2026-05-01 10:07 0.92313 115.18512 34945 ft 474 kts 12°
2026-05-01 10:08 1.02062 115.20362 34971 ft 473 kts 12°
2026-05-01 10:09 1.08535 115.21593 34967 ft 473 kts 12°
2026-05-01 10:09 1.15058 115.22830 34946 ft 472 kts 12°
2026-05-01 10:10 1.21525 115.24058 34927 ft 472 kts 12°
2026-05-01 10:10 1.31222 115.25899 34905 ft 471 kts 12°
2026-05-01 10:11 1.37681 115.27125 34916 ft 471 kts 12°
2026-05-01 10:11 1.44116 115.28348 34925 ft 471 kts 12°
2026-05-01 10:12 1.50606 115.29581 34935 ft 471 kts 12°
2026-05-01 10:13 1.60257 115.31414 34948 ft 470 kts 12°
2026-05-01 10:13 1.66737 115.32644 34951 ft 470 kts 12°
2026-05-01 10:14 1.76366 115.34475 34959 ft 469 kts 12°
2026-05-01 10:14 1.82819 115.35701 34961 ft 470 kts 12°
2026-05-01 10:15 1.89255 115.36925 34953 ft 470 kts 12°
2026-05-01 10:15 1.95687 115.38147 34943 ft 469 kts 12°
2026-05-01 10:16 2.02119 115.39368 34948 ft 469 kts 12°
2026-05-01 10:17 2.11766 115.41202 34980 ft 469 kts 12°
2026-05-01 10:17 2.21393 115.43032 35015 ft 469 kts 12°
2026-05-01 10:18 2.31044 115.44868 35026 ft 469 kts 12°
2026-05-01 10:19 2.37493 115.46093 35017 ft 469 kts 12°
2026-05-01 10:19 2.43916 115.47314 35003 ft 469 kts 12°
2026-05-01 10:20 2.53552 115.49146 34987 ft 469 kts 12°
2026-05-01 10:20 2.59986 115.50371 34973 ft 469 kts 12°
2026-05-01 10:21 2.69611 115.52201 34962 ft 469 kts 12°
2026-05-01 10:22 2.79273 115.54041 34961 ft 469 kts 12°
2026-05-01 10:23 2.88899 115.55871 34999 ft 468 kts 12°
2026-05-01 10:23 2.98572 115.57713 35036 ft 469 kts 12°
2026-05-01 10:24 3.11409 115.60156 35050 ft 469 kts 12°
2026-05-01 10:25 3.24261 115.62603 35046 ft 469 kts 12°
2026-05-01 10:26 3.30715 115.63831 35048 ft 469 kts 12°
2026-05-01 10:27 3.43570 115.66280 35049 ft 469 kts 12°
2026-05-01 10:28 3.53228 115.68120 35044 ft 470 kts 12°
2026-05-01 10:28 3.62899 115.69964 35042 ft 471 kts 12°
2026-05-01 10:29 3.72584 115.71809 35039 ft 470 kts 12°
2026-05-01 10:30 3.85498 115.74274 35035 ft 471 kts 12°
2026-05-01 10:31 3.98400 115.76736 35055 ft 471 kts 12°
2026-05-01 10:32 4.08130 115.78579 35049 ft 471 kts 10°
2026-05-01 10:33 4.21177 115.80393 35025 ft 472 kts
2026-05-01 10:34 4.30971 115.81723 35016 ft 472 kts
2026-05-01 10:34 4.37496 115.82613 35014 ft 472 kts
2026-05-01 10:35 4.47264 115.83945 35009 ft 472 kts
2026-05-01 10:35 4.53775 115.84832 35008 ft 472 kts
2026-05-01 10:36 4.63588 115.86172 35014 ft 472 kts
2026-05-01 10:37 4.70120 115.87064 35015 ft 472 kts
2026-05-01 10:37 4.79899 115.88399 34999 ft 471 kts
2026-05-01 10:38 4.86418 115.89290 34987 ft 472 kts
2026-05-01 10:38 4.92955 115.90160 34966 ft 472 kts
2026-05-01 10:39 4.99510 115.90997 34949 ft 472 kts
2026-05-01 10:39 5.06056 115.91836 34939 ft 473 kts
2026-05-01 10:40 5.12571 115.92675 34932 ft 473 kts
2026-05-01 10:40 5.19116 115.93520 34922 ft 473 kts
2026-05-01 10:41 5.25651 115.94373 34912 ft 473 kts
2026-05-01 10:42 5.35478 115.95751 34934 ft 472 kts
2026-05-01 10:42 5.41965 115.96665 34964 ft 473 kts
2026-05-01 10:43 5.48501 115.97582 35006 ft 473 kts
2026-05-01 10:43 5.55046 115.98500 35019 ft 473 kts
2026-05-01 10:44 5.60061 115.99204 34991 ft 473 kts